Location: Ladrillo (historical)
(32.8195°N, 117.2231°W)
Time: 21:57:25
(UTC+00:00)

Gblst 52 Del rocket - Pass Details

Date: 29 October 2020
Orbit: 805 x 1365 km, 51.5° (Epoch: 25 November)

Event Time Altitude Azimuth Distance (km) Brightness Sun altitude
Exits shadow 12:24:22 33° 227° (SW) 1,338 4.9 -21.6°
Maximum altitude 12:26:57 88° 314° (NW) 843 4.1 -21.0°
Drops below altitude 10° 12:32:56 10° 46° (NE) 2,583 7.3 -19.8°
Sets 12:35:37 0° 46° (NE) 3,602 8.1 -19.2°
